This demonstration page uses our WeatherBlox Daily Observations layout. Learn more.

Left ArrowRight Arrow

38.20091, -84.87328

Hourly Observations for August 30, 2022

Temp ( °F °C ) Dew Point ( °F °C ) Humidity (%) Winds ( mph kmh ) Pressure ( in mb ) Visibility ( mi km ) Precip ( " mm )
12:34 am 00:34 Cloudy 75 23.9 73 22.8 94 94 Calm 29.96 1015 9 14 0.00 0.00
12:53 am 00:53 Cloudy 75 23.9 73 22.8 94 94 N 5 7 29.96 1015 7 11 0.00 0.00
1:11 am 01:11 Cloudy with Mist and Fog 74 23.3 73 22.8 97 97 Calm 29.97 1015 4 6 0.00 0.00
1:18 am 01:18 Mostly Cloudy with Mist and Fog 74 23.3 73 22.8 97 97 Calm 29.97 1015 2 2 0.00 0.00
1:21 am 01:21 Mostly Cloudy with Mist and Fog 74 23.3 73 22.8 97 97 Calm 29.97 1015 1 1 0.00 0.00
1:32 am 01:32 Cloudy with Mist and Fog 74 23.3 73 22.8 97 97 Calm 29.97 1015 1 2 0.00 0.00
1:43 am 01:43 Cloudy with Mist and Fog 74 23.3 73 22.8 97 97 SSE 3 6 29.97 1015 3 5 0.00 0.00
1:53 am 01:53 Mostly Cloudy with Mist and Fog 74 23.3 73 22.8 97 97 SSE 3 6 29.96 1015 5 8 0.00 0.00
2:34 am 02:34 Mostly Cloudy with Mist and Fog 73 22.8 72 22.2 96 96 Calm 29.93 1014 2 3 0.00 0.00
2:40 am 02:40 Mostly Cloudy with Mist and Fog 73 22.8 73 22.8 100 100 Calm 29.93 1014 1 1 0.00 0.00
2:53 am 02:53 Cloudy with Mist and Fog 73 22.8 72 22.2 96 96 SE 3 6 29.93 1014 2 3 0.00 0.00
2:55 am 02:55 Cloudy with Mist and Fog 73 22.8 72 22.2 96 96 SE 3 6 29.92 1013 3 5 0.00 0.00
3:05 am 03:05 Cloudy with Mist and Fog 73 22.8 72 22.2 96 96 Calm 29.92 1013 2 3 0.00 0.00
3:15 am 03:15 Cloudy with Mist and Fog 73 22.8 72 22.2 96 96 Calm 29.92 1013 1 1 0.00 0.00
3:53 am 03:53 Cloudy with Mist and Fog 73 22.8 72 22.2 96 96 Calm 29.93 1013 1 1 0.00 0.00
3:58 am 03:58 Cloudy with Mist and Fog 73 22.8 72 22.2 96 96 Calm 29.92 1013 1 2 0.00 0.00
4:03 am 04:03 Cloudy with Mist and Fog 73 22.8 72 22.2 96 96 Calm 29.92 1013 3 5 0.00 0.00
4:14 am 04:14 Cloudy with Mist and Fog 73 22.8 72 22.2 96 96 Calm 29.92 1013 5 8 0.00 0.00
4:21 am 04:21 Cloudy with Mist and Fog 73 22.8 73 22.8 100 100 Calm 29.91 1013 5 8 0.00 0.00
4:39 am 04:39 Cloudy with Nearby Thunderstorms 73 22.8 72 22.2 96 96 undefined N/A 29.93 1014 3 4 0.00 0.00
4:53 am 04:53 Cloudy with Nearby Thunderstorms 71 21.7 69 20.6 93 93 NW 9 15 29.93 1014 10 16 0.01 0.25
5:00 am 05:00 Cloudy with Light Rain 71 21.7 69 20.6 93 93 WNW 7 11 29.93 1013 10 16 0.01 0.13
5:07 am 05:07 Cloudy 71 21.7 69 20.6 93 93 Calm 29.94 1014 10 16 0.01 0.13
5:33 am 05:33 Cloudy with Heavy Rain 71 21.7 69 20.6 93 93 Calm 29.94 1014 2 2 0.11 2.79
5:42 am 05:42 Cloudy with Light Rain 71 21.7 69 20.6 93 93 VRB 3 6 29.94 1014 2 3 0.15 3.81
5:49 am 05:49 Cloudy with Light Rain 72 22 70 21 94 94 Calm 29.93 1014 7 11 0.15 3.81
5:53 am 05:53 Cloudy with Nearby Thunderstorms 71 21.7 69 20.6 93 93 Calm 29.93 1014 5 8 0.16 4.06
6:06 am 06:06 Cloudy with Nearby Thunderstorms 70 21.1 69 20.6 97 97 SSW 3 6 29.95 1014 3 4 0.06 1.52
6:09 am 06:09 Cloudy with Rain 70 21.1 69 20.6 97 97 SSW 5 7 29.95 1014 3 5 0.07 1.78
6:24 am 06:24 Cloudy with Rain 71 21.7 69 20.6 93 93 SSW 7 11 29.95 1014 3 4 0.15 3.81
6:32 am 06:32 Cloudy with Heavy Rain 71 21.7 69 20.6 93 93 WSW 6 9 29.96 1014 2 3 0.21 5.33
6:39 am 06:39 Cloudy with Heavy Rain 70 21.1 70 21.1 100 100 SSW 3 6 29.94 1014 1 2 0.29 7.37
6:46 am 06:46 Cloudy with Rain 71 21.7 70 21.1 96 96 Calm 29.93 1013 3 5 0.31 7.87
6:53 am 06:53 Cloudy with Rain 70 21.1 69 20.6 97 97 Calm 29.93 1014 3 5 0.33 8.38
7:53 am 07:53 Partly Cloudy 71 21.7 69 20.6 93 93 SSW 5 7 29.94 1014 9 14 0.03 0.76
8:14 am 08:14 Mostly Cloudy 71 21.7 69 20.6 93 93 S 6 9 29.94 1014 10 16 0.00 0.00
8:33 am 08:33 Mostly Cloudy 71 21.7 70 21.1 96 96 SSW 7 11 29.95 1014 10 16 0.00 0.00
8:46 am 08:46 Mostly Cloudy 71 21.7 70 21.1 96 96 SSW 6 9 29.95 1014 10 16 0.00 0.00
8:53 am 08:53 Mostly Cloudy with Light Rain 71 21.7 70 21.1 96 96 SSW 5 7 29.94 1014 10 16 0.01 0.13
9:53 am 09:53 Mostly Cloudy 73 22.8 71 21.7 94 94 WSW 6 9 29.95 1014 10 16 0.01 0.13
10:07 am 10:07 Mostly Cloudy 74 23.3 71 21.7 91 91 WSW 6 9 29.95 1014 10 16 0.00 0.00
10:39 am 10:39 Cloudy 75 23.9 72 22.2 90 90 W 7 11 29.96 1015 10 16 0.00 0.00
10:48 am 10:48 Cloudy 75 24 72 22 89 89 W 6 9 29.96 1015 10 16 0.00 0.00
10:49 am 10:49 Cloudy 76 24.4 71 21.7 85 85 W 6 9 29.96 1015 10 16 0.00 0.00
11:02 am 11:02 Mostly Cloudy 78 25.6 72 22.2 82 82 W 7 11 29.96 1014 10 16 0.00 0.00
11:53 am 11:53 Cloudy 78 25.6 71 21.7 79 79 WNW 7 11 29.98 1015 10 16 0.00 0.00
12:37 pm 12:37 Mostly Cloudy 78 25.6 70 21.1 76 76 W 8 13 29.97 1015 10 16 0.00 0.00
12:53 pm 12:53 Mostly Cloudy 82 27.8 71 21.7 69 69 WNW 8 13 29.96 1015 10 16 0.00 0.00
1:53 pm 13:53 Mostly Cloudy 80 26.7 71 21.7 74 74 VRB 6 9 29.96 1015 10 16 0.00 0.00
2:53 pm 14:53 Mostly Sunny 84 28.9 68 20 59 59 WNW 10 17 29.95 1014 10 16 0.00 0.00
3:53 pm 15:53 Sunny 84 28.9 63 17.2 49 49 NW 8 13 29.93 1014 10 16 0.00 0.00
4:53 pm 16:53 Partly Cloudy 84 28.9 63 17.2 49 49 WNW 7 11 29.93 1014 10 16 0.00 0.00
5:53 pm 17:53 Mostly Cloudy 84 28.9 61 16.1 46 46 WNW 6 9 29.92 1013 10 16 0.00 0.00
6:53 pm 18:53 Mostly Sunny 81 27.2 61 16.1 51 51 W 3 6 29.92 1013 10 16 0.00 0.00
7:53 pm 19:53 Sunny 78 25.6 63 17.2 60 60 W 3 6 29.93 1013 10 16 0.00 0.00
8:53 pm 20:53 Clear 72 22.2 64 17.8 76 76 WNW 3 6 29.95 1014 10 16 0.00 0.00
9:53 pm 21:53 Mostly Clear 71 21.7 63 17.2 76 76 W 3 6 29.98 1015 10 16 0.00 0.00
10:53 pm 22:53 Mostly Clear 72 22.2 62 16.7 71 71 NW 6 9 29.99 1016 10 16 0.00 0.00
11:53 pm 23:53 Mostly Cloudy 70 21.1 63 17.2 78 78 NNW 3 6 30.00 1016 10 16 0.00 0.00

Powered by AerisWeather